Regional Weather Roundup
Issued by NWS Newport/Morehead, NC

Current Version | Previous Version | Text Only | Print | Product List | Glossary On
Versions: 1 2 3 4 5 6 7 8 9 10 11 12 13 14 15 16 17 18 19 20 21 22 23 24 25 26 27 28 29 30 31 32 33 34 35 36 37 38 39 40 41 42 43 44 45 46 47 48 49 50
000
ASUS42 KMHX 192022
RWRMHX
WEATHER ROUNDUP FOR EASTERN NORTH CAROLINA
NATIONAL WEATHER SERVICE NEWPORT/MOREHEAD CITY NC
400 PM EDT SAT APR 19 2014

NOTE: "FAIR" INDICATES FEW OR NO CLOUDS BELOW 12,000 FEET
WITH NO SIGNIFICANT WEATHER AND/OR OBSTRUCTIONS TO VISIBILITY

NCZ015>017-031-032-045>047-102-103-192100-
NORTH COAST

CITY           SKY/WX    TMP DP  RH WIND       PRES   REMARKS
EDENTON        CLOUDY    52  42  67 NE13      30.18R
ELIZABETH CITY CLOUDY    52  38  58 NE18G25   30.18F
KITTY HAWK     CLOUDY    49  43  80 N12G18    30.14S
MANTEO         RAIN      49  45  83 NE17      30.16R

$$

NCZ045>047-081-094-103-104-192100-
CENTRAL COAST

CITY           SKY/WX    TMP DP  RH WIND       PRES   REMARKS
FRISCO         LGT RAIN  53  52  96 NE10G23   30.10R
SWANQUARTER      N/A     52 N/A N/A N10G24    30.09S

$$

NCZ095-097-098-100-101-192100-
SOUTHERN COAST

CITY           SKY/WX    TMP DP  RH WIND       PRES   REMARKS
BEAUFORT       CLOUDY    57  53  86 NE20G36   30.05F
CEDAR ISLAND     N/A     57 N/A N/A VRB23G36  30.15R
JACKSONVILLE   CLOUDY    55  54  96 NE20G33   30.06F
NEWPORT          N/A     54  52  94 NE16G24     N/A
PINEY ISLAND   CLOUDY    58  53  84 NE28G35   30.08S
WILMINGTON     CLOUDY    58  54  86 N17G25    30.04R


$$

NCZ011>013-027>030-043-044-078>080-089-090>093-098-192100-
COASTAL PLAIN

CITY           SKY/WX    TMP DP  RH WIND       PRES   REMARKS
AHOSKIE        CLOUDY    50  42  73 NE7       30.21S
CLINTON        CLOUDY    51  51  99 NE12G18   30.10S FOG
ELIZABETHTOWN  CLOUDY    52  51  95 NE3       30.08F
GOLDSBORO      LGT RAIN  50  50 100 NE15G23   30.12S FOG
GREENVILLE     CLOUDY    50  45  81 NE13G18   30.17S
HAVELOCK       CLOUDY    54  50  86 NE24      30.10S
KENANSVILLE    CLOUDY    51  49  93 NE10G17   30.10F
KINSTON        LGT RAIN  50  48  93 NE18G25   30.14F
NEW BERN       LGT RAIN  52  49  89 NE18G24   30.13F FOG
RICHLANDS      CLOUDY    54 N/A N/A N22       30.08F
ROANOKE RAPIDS NOT AVBL
ROCKY MOUNT    CLOUDY    53  45  74 N16       30.18R
WASHINGTON     CLOUDY    50  46  85 NE12      30.16F
WHITEVILLE     CLOUDY    54  51  88 NE12G23   30.04F

$$

AMZ130-135-150-152-154-156-158-170-250-252-270-ANZ085-086-088-633-658-670-192100-
MARINE OBSERVATIONS

STATION/POSITION TIME  TEMP    WIND        PRES    WAVE   SWELL
                       AIR SEA DIR/SP/G            HT/PER HT/PER
                 (UTC) (F)     (DEG/KT/KT) (MB)    (FT/S) (FT/S)
CHESAPEAKE LIGHT 2000   46      40/ 18/ 20 1023.0
BUOY 44014       2000   50 48   20/ 17/ 19 1021.3    6/ 9   3/ 9
DUCK             2000   48 49   30/ 19/ 22 1020.3
2E DUCK          2000      47                N/A     6/11   2/11
OREGON INLET     2000   50 51   20/ 16/ 20 1020.3
BUOY 44095       2000      48                N/A     8/10   2/11
HATTERAS CG      2000   54 56   30/ 13/ 21 1019.3
DIAMOND BUOY     NOT AVBL
CAPE LOOKOUT     2000   58      30/ 28/ 33 1017.3
BEAUFORT LAB     2000   57 58   40/ 16/ 30 1016.7
30 SE NEW RIVER  2000   60 67   50/ 33/ 43 1013.9    9/ 8   3/10
5 SE WRIGHTSVILL 2000   58 59   40/ 25/ 29 1015.2
FRYING PAN BUOY  2000   63 66   40/ 25/ 31 1012.7   10/ 7   2/15
BUOY 41001       NOT AVBL
BUOY 41002       NOT AVBL
BUOY 41004       NOT AVBL

$$



USA.gov is the U.S. government's official web portal to all federal, state and local government web resources and services.